FW6490 Weather Reports


time (UTC)temp
F
wind
direction
speed
knots
gust
knots
rain 1hr
in
rain 24hr
in
rain mn
in
humidity
%
barometer
mb
20260509181757 72 317 2.6 7.0 0.00 0.00 0.00 63 1008.7
20260509181254 72 294 2.6 7.0 0.00 0.00 0.00 64 1009.0
20260509180249 73 323 1.7 6.1 0.00 0.00 0.00 62 1009.0
20260509175248 72 336 0.0 4.3 0.00 0.00 0.00 64 1009.0
20260509174751 72 9 0.0 4.3 0.00 0.00 0.00 64 1009.0
20260509174244 71 5 0.0 4.3 0.00 0.00 0.00 66 1009.0
20260509173741 70 5 0.0 3.5 0.00 0.00 0.00 67 1009.0
20260509173240 70 355 0.0 3.5 0.00 0.00 0.00 69 1009.0
20260509172740 69 5 0.0 2.6 0.00 0.00 0.00 71 1009.0
20260509172240 67 5 0.0 0.9 0.00 0.00 0.00 74 1009.0
20260509171742 66 59 0.0 0.9 0.00 0.00 0.00 76 1009.0
20260509171241 65 65 0.0 0.9 0.00 0.00 0.00 76 1009.1
20260509170739 65 65 0.0 0.0 0.00 0.00 0.00 77 1009.1
20260509170235 64 65 0.0 0.0 0.00 0.00 0.00 77 1009.1
20260509165738 63 65 0.0 0.0 0.00 0.00 0.00 79 1009.1
20260509165237 62 59 0.0 0.0 0.00 0.00 0.00 83 1009.1
20260509164732 61 58 0.0 0.0 0.00 0.00 0.00 85 1009.1
20260509164228 60 58 0.0 0.0 0.00 0.00 0.00 87 1009.2
20260509163225 58 57 0.0 0.0 0.00 0.00 0.00 92 1009.2
20260509162723 57 0 0.0 0.0 0.00 0.00 0.00 94 1009.4
20260509162219 56 0 0.0 0.0 0.00 0.00 0.00 95 1009.4
20260509161213 55 355 0.0 0.0 0.00 0.00 0.00 96 1009.3
20260509160712 54 355 0.0 0.0 0.00 0.00 0.00 96 1009.3
20260509160206 54 346 0.0 0.0 0.00 0.00 0.00 97 1009.3
20260509155704 53 329 0.0 0.0 0.00 0.00 0.00 96 1009.3
20260509155204 53 329 0.0 0.0 0.00 0.00 0.00 96 1009.3
20260509154209 52 329 0.0 0.0 0.00 0.00 0.00 97 1009.5
20260509153704 52 329 0.0 0.0 0.00 0.00 0.00 96 1009.5
20260509152701 52 329 0.0 0.0 0.00 0.00 0.00 96 1009.4
20260509152201 51 329 0.0 1.7 0.00 0.00 0.00 96 1009.4
20260509151159 51 329 0.0 1.7 0.00 0.00 0.00 96 1009.3
20260509150658 51 329 0.0 1.7 0.00 0.00 0.00 96 1009.3
20260509145655 51 329 0.9 1.7 0.00 0.00 0.00 96 1009.4
20260509145149 51 329 0.9 2.6 0.00 0.00 0.00 96 1009.4
20260509143643 50 329 0.9 2.6 0.00 0.00 0.00 96 1009.4
20260509143140 50 329 0.9 2.6 0.00 0.00 0.00 96 1009.4
20260509142640 50 329 0.9 2.6 0.00 0.00 0.00 96 1009.5
20260509142142 50 329 0.9 2.6 0.00 0.00 0.00 96 1009.5
20260509141636 50 329 0.0 1.7 0.00 0.00 0.00 96 1009.5
20260509140635 50 330 0.0 0.0 0.00 0.00 0.00 96 1009.5
20260509140131 50 331 0.0 1.7 0.00 0.00 0.00 96 1009.5
20260509135632 49 330 0.9 2.6 0.00 0.00 0.00 96 1009.5
20260509135125 49 331 0.9 2.6 0.00 0.00 0.00 96 1009.5
20260509134625 49 330 0.9 2.6 0.00 0.00 0.00 95 1009.5
20260509134124 50 330 0.0 1.7 0.00 0.00 0.00 95 1009.2
20260509133623 50 330 0.0 0.9 0.00 0.00 0.00 95 1009.2
20260509133117 50 330 0.0 0.9 0.00 0.00 0.00 95 1009.2
20260509132615 50 330 0.0 0.9 0.00 0.00 0.00 96 1009.0
20260509132116 50 329 0.0 0.0 0.00 0.00 0.00 96 1009.0
20260509131110 50 329 0.0 0.0 0.00 0.00 0.00 95 1008.9
20260509130609 50 329 0.0 0.0 0.00 0.00 0.00 95 1008.9
20260509125604 50 329 0.0 0.0 0.00 0.00 0.00 95 1008.5
20260509125105 50 329 0.0 0.0 0.00 0.00 0.00 95 1008.5
20260509124600 50 329 0.0 0.0 0.00 0.00 0.00 95 1008.5
20260509123558 50 329 0.0 0.0 0.00 0.00 0.00 95 1008.6
20260509123056 50 329 0.0 0.0 0.00 0.00 0.00 95 1008.6
20260509122549 50 329 0.0 0.0 0.00 0.00 0.00 95 1008.6
20260509122046 50 329 0.0 2.6 0.00 0.00 0.00 95 1008.6
20260509121050 50 329 0.0 0.9 0.00 0.00 0.00 95 1008.9
20260509120541 51 329 0.0 2.6 0.00 0.00 0.00 95 1008.9
20260509120041 51 329 0.9 2.6 0.00 0.00 0.00 95 1008.9
20260509115538 51 329 0.0 1.7 0.00 0.00 0.00 95 1008.9
20260509115034 51 329 0.0 0.9 0.00 0.00 0.00 95 1008.9
20260509114032 51 329 0.9 1.7 0.00 0.00 0.00 94 1008.9
20260509113528 51 329 0.0 1.7 0.00 0.00 0.00 95 1008.9
20260509113030 51 329 0.0 1.7 0.00 0.00 0.00 95 1008.9
20260509110520 50 329 0.0 2.6 0.00 0.00 0.00 94 1009.1
20260509105515 50 329 0.0 2.6 0.00 0.00 0.00 94 1009.1
20260509105007 50 329 0.9 2.6 0.00 0.00 0.00 94 1009.1
20260509104507 51 329 0.9 2.6 0.00 0.00 0.00 94 1009.1
20260509104011 51 329 0.9 2.6 0.00 0.00 0.00 94 1009.3
20260509103511 51 329 0.0 0.0 0.00 0.00 0.00 94 1009.3
20260509103001 51 329 0.0 0.0 0.00 0.00 0.00 94 1009.3
20260509102459 51 329 0.0 0.0 0.00 0.00 0.00 94 1009.2
20260509101959 51 329 0.0 0.0 0.00 0.00 0.00 94 1009.2
20260509101457 51 329 0.0 0.0 0.00 0.00 0.00 94 1009.2
20260509100952 51 329 0.0 0.0 0.00 0.00 0.00 93 1009.4
20260509095954 52 329 0.0 0.0 0.00 0.00 0.00 93 1009.4
20260509095448 52 329 0.0 0.0 0.00 0.00 0.00 94 1009.4
20260509094947 52 329 0.0 0.0 0.00 0.00 0.00 94 1009.4
20260509094441 51 329 0.0 0.0 0.00 0.00 0.00 94 1009.4
20260509093934 51 329 0.0 0.0 0.00 0.00 0.00 93 1009.5
20260509093431 51 329 0.0 0.0 0.00 0.00 0.00 93 1009.5
20260509092928 51 329 0.0 1.7 0.00 0.00 0.00 93 1009.5
20260509092424 52 329 0.0 1.7 0.00 0.00 0.00 93 1009.4
20260509091923 52 329 0.0 1.7 0.00 0.00 0.00 93 1009.4
20260509091419 52 329 0.0 1.7 0.00 0.00 0.00 93 1009.4
20260509090923 52 329 0.0 0.9 0.00 0.00 0.00 93 1009.5
20260509090423 52 329 0.0 0.9 0.00 0.00 0.00 93 1009.5
20260509085913 52 329 0.0 1.7 0.00 0.00 0.00 93 1009.5
20260509085413 52 329 0.0 1.7 0.00 0.00 0.00 93 1009.5
20260509084908 51 329 0.0 1.7 0.00 0.00 0.00 93 1009.5
20260509083905 51 329 0.0 0.0 0.00 0.00 0.00 93 1009.7
20260509083405 51 329 0.0 0.0 0.00 0.00 0.00 93 1009.7
20260509082405 51 329 0.0 1.7 0.00 0.00 0.00 92 1009.8
20260509081401 51 329 0.0 1.7 0.00 0.00 0.00 93 1009.8
20260509080353 52 329 0.9 2.6 0.00 0.00 0.00 92 1009.8
20260509075853 52 329 0.9 2.6 0.00 0.00 0.00 92 1009.9
20260509075352 52 329 0.9 2.6 0.00 0.00 0.00 92 1009.9
20260509074849 52 329 0.9 3.5 0.00 0.00 0.00 92 1009.9
20260509074346 52 329 0.0 3.5 0.00 0.00 0.00 92 1009.9
20260509073842 52 329 0.9 3.5 0.00 0.00 0.00 92 1009.9
20260509073347 52 329 0.9 3.5 0.00 0.00 0.00 91 1009.9
20260509072842 52 329 0.9 2.6 0.00 0.00 0.00 91 1010.0
20260509072340 53 329 0.9 2.6 0.00 0.00 0.00 91 1010.0
20260509071840 53 329 0.9 2.6 0.00 0.00 0.00 91 1010.0
20260509071339 53 329 0.9 2.6 0.00 0.00 0.00 91 1010.0
20260509070840 53 329 0.9 2.6 0.00 0.00 0.00 91 1010.0
20260509070339 53 329 0.0 1.7 0.00 0.00 0.00 91 1010.0
20260509065843 53 329 0.0 1.7 0.00 0.00 0.00 91 1010.1
20260509064840 53 329 0.9 2.6 0.00 0.00 0.00 91 1010.1
20260509064334 53 329 0.9 2.6 0.00 0.00 0.00 91 1010.2
20260509063836 53 329 0.0 2.6 0.00 0.00 0.00 91 1010.2
20260509062830 54 329 0.0 1.7 0.00 0.00 0.00 91 1010.5
20260509062327 54 329 0.0 1.7 0.00 0.00 0.00 91 1010.5
20260509061327 54 329 0.0 1.7 0.00 0.00 0.00 91 1010.5
20260509060824 53 329 0.9 2.6 0.00 0.00 0.00 91 1010.5
20260509060324 53 329 0.9 2.6 0.00 0.00 0.00 91 1010.5
20260509055822 53 329 0.9 2.6 0.00 0.00 0.00 91 1010.5
20260509055324 53 329 0.9 2.6 0.00 0.00 0.00 91 1010.5
20260509054820 53 329 1.7 4.3 0.00 0.00 0.00 91 1010.5
20260509054326 53 329 1.7 4.3 0.00 0.00 0.00 91 1010.5
20260509053820 53 329 1.7 3.5 0.00 0.00 0.00 91 1010.5
20260509052817 53 329 0.0 1.7 0.00 0.00 0.00 91 1010.5
20260509052316 53 329 0.0 1.7 0.00 0.00 0.00 91 1010.5
20260509051814 53 329 0.9 3.5 0.00 0.00 0.00 91 1010.5
20260509051306 53 329 0.9 3.5 0.00 0.00 0.00 91 1010.4
20260509050808 53 329 0.9 3.5 0.00 0.00 0.00 90 1010.4
20260509050305 53 329 0.9 2.6 0.00 0.00 0.00 90 1010.4
20260509045806 53 329 0.0 1.7 0.00 0.00 0.00 90 1010.2
20260509045306 54 329 0.0 1.7 0.00 0.00 0.00 90 1010.2
20260509044800 54 329 0.9 3.5 0.00 0.00 0.00 90 1010.2
20260509044300 54 329 0.9 3.5 0.00 0.00 0.00 90 1010.1
20260509043758 54 329 0.9 2.6 0.00 0.00 0.00 90 1010.1
20260509043258 54 329 0.9 2.6 0.00 0.00 0.00 90 1010.1
20260509042254 54 329 0.9 2.6 0.00 0.00 0.00 89 1010.0
20260509041757 54 329 0.0 1.7 0.00 0.00 0.00 89 1010.0
20260509041252 54 329 0.9 3.5 0.00 0.00 0.00 89 1009.9
20260509040750 54 329 0.9 3.5 0.00 0.00 0.00 89 1009.9
20260509040249 54 329 0.9 3.5 0.00 0.00 0.00 89 1009.9
20260509035748 54 329 0.9 3.5 0.00 0.00 0.00 88 1009.9
20260509035246 54 329 0.9 3.5 0.00 0.00 0.00 88 1009.9
20260509034741 55 329 0.9 4.3 0.00 0.00 0.00 87 1009.9
20260509034241 55 329 0.0 4.3 0.00 0.00 0.00 87 1009.8
20260509033738 55 329 0.0 1.7 0.00 0.00 0.00 86 1009.8
20260509033240 55 329 0.9 3.5 0.00 0.00 0.00 86 1009.8
20260509032732 55 329 0.9 3.5 0.00 0.00 0.00 86 1009.5
20260509032232 56 329 0.9 3.5 0.00 0.00 0.00 85 1009.5
20260509031730 56 329 1.7 3.5 0.00 0.00 0.00 85 1009.6
20260509031227 56 329 0.9 3.5 0.00 0.00 0.00 84 1009.5
20260509030726 56 329 0.9 3.5 0.00 0.00 0.00 84 1009.5
20260509030224 57 329 0.9 3.5 0.00 0.00 0.00 84 1009.5
20260509025719 57 329 0.9 2.6 0.00 0.00 0.00 83 1009.4
20260509025224 57 329 0.9 4.3 0.00 0.00 0.00 83 1009.4
20260509024722 57 329 1.7 4.3 0.00 0.00 0.00 83 1009.4
20260509023717 58 329 2.6 5.2 0.00 0.00 0.00 82 1009.1
20260509023216 58 329 2.6 5.2 0.00 0.00 0.00 81 1009.1
20260509022712 58 331 1.7 4.3 0.00 0.00 0.00 81 1009.0
20260509021713 59 327 3.5 5.2 0.00 0.00 0.00 80 1009.0
20260509021212 59 324 3.5 7.0 0.00 0.00 0.00 79 1009.0
20260509020713 59 327 3.5 8.7 0.00 0.00 0.00 78 1009.0
20260509020212 60 314 3.5 8.7 0.00 0.00 0.00 77 1009.0
20260509015708 61 335 2.6 5.2 0.00 0.00 0.00 77 1009.0
20260509015208 61 315 3.5 7.0 0.00 0.00 0.00 76 1009.0
20260509014707 61 309 3.5 7.8 0.00 0.00 0.00 76 1009.0
20260509013705 62 317 4.3 8.7 0.00 0.00 0.00 75 1009.0
20260509013207 62 314 4.3 7.8 0.00 0.00 0.00 75 1009.0
20260509012702 62 323 3.5 7.8 0.00 0.00 0.00 73 1009.0
20260509011658 63 347 4.3 9.6 0.00 0.00 0.00 73 1009.0
20260509010150 64 319 5.2 12.2 0.00 0.00 0.00 72 1008.9
20260509005649 64 321 4.3 8.7 0.00 0.00 0.00 72 1009.0
20260509005146 65 305 4.3 9.6 0.00 0.00 0.00 71 1009.0
20260509004643 65 316 4.3 9.6 0.00 0.00 0.00 69 1009.0
20260509004141 66 336 3.5 7.8 0.00 0.00 0.00 69 1009.1
20260509003642 66 321 3.5 7.8 0.00 0.00 0.00 69 1009.1
20260509002640 66 315 4.3 9.6 0.00 0.00 0.00 69 1009.2
20260509002134 66 313 4.3 9.6 0.00 0.00 0.00 68 1009.2
20260509001635 66 294 4.3 12.2 0.00 0.00 0.00 68 1009.2
20260509001133 67 316 4.3 12.2 0.00 0.00 0.00 67 1009.3
20260509000633 67 5 4.3 8.7 0.00 0.00 0.00 67 1009.3
20260509000133 67 318 4.3 7.8 0.00 0.00 0.00 67 1009.3
20260508235632 67 351 4.3 10.4 0.00 0.00 0.00 67 1009.3
20260508235129 67 310 4.3 10.4 0.00 0.00 0.00 67 1009.3
20260508233619 67 290 5.2 10.4 0.00 0.00 0.00 68 1009.6
20260508232618 67 355 5.2 11.3 0.00 0.00 0.00 67 1009.7
20260508232119 67 21 6.1 13.0 0.00 0.00 0.00 67 1009.7
20260508231617 67 299 6.1 13.0 0.00 0.00 0.00 65 1009.7
20260508231112 68 288 5.2 11.3 0.00 0.00 0.00 64 1009.8
20260508230611 69 322 4.3 9.6 0.00 0.00 0.00 65 1009.8
20260508230111 69 309 4.3 8.7 0.00 0.00 0.00 65 1009.8
20260508225611 68 343 4.3 10.4 0.00 0.00 0.00 66 1009.8
20260508225112 68 313 5.2 11.3 0.00 0.00 0.00 66 1009.8
20260508224608 68 313 6.1 11.3 0.00 0.00 0.00 65 1009.8
20260508224110 69 285 4.3 9.6 0.00 0.00 0.00 64 1010.2
20260508223609 69 294 4.3 9.6 0.00 0.00 0.00 64 1010.2
20260508223107 69 309 5.2 12.2 0.00 0.00 0.00 65 1010.2
20260508222609 69 266 5.2 12.2 0.00 0.00 0.00 64 1010.2
20260508222107 70 290 4.3 9.6 0.00 0.00 0.00 64 1010.2
20260508221606 69 313 5.2 9.6 0.00 0.00 0.00 65 1010.2
20260508221107 70 303 4.3 9.6 0.00 0.00 0.00 65 1010.5
20260508220605 70 285 4.3 9.6 0.00 0.00 0.00 64 1010.5
20260508220109 70 310 4.3 9.6 0.00 0.00 0.00 64 1010.5
20260508215605 70 314 4.3 9.6 0.00 0.00 0.00 64 1010.7
20260508215106 70 325 4.3 8.7 0.00 0.00 0.00 66 1010.7
20260508214605 69 320 4.3 11.3 0.00 0.00 0.00 66 1010.7
20260508214103 69 301 4.3 11.3 0.00 0.00 0.00 64 1010.7
20260508213602 70 5 3.5 8.7 0.00 0.00 0.00 65 1010.7
20260508212100 67 304 6.1 11.3 0.00 0.00 0.00 69 1010.8
20260508211559 67 309 6.1 12.2 0.00 0.00 0.00 68 1010.8
20260508211057 68 321 6.1 12.2 0.00 0.00 0.00 67 1010.8
20260508210558 68 329 6.1 11.3 0.00 0.00 0.00 67 1010.8
20260508210057 68 311 6.1 12.2 0.00 0.00 0.00 67 1010.8
20260508205553 68 321 6.1 12.2 0.00 0.00 0.00 66 1010.8
20260508205053 70 321 5.2 10.4 0.00 0.00 0.00 64 1010.8
20260508204553 70 5 5.2 9.6 0.00 0.00 0.00 64 1010.8
20260508203553 71 313 4.3 9.6 0.00 0.00 0.00 62 1011.0
20260508203052 71 307 4.3 9.6 0.00 0.00 0.00 64 1011.0
20260508202552 70 314 5.2 9.6 0.00 0.00 0.00 64 1011.1
20260508202053 70 314 5.2 9.6 0.00 0.00 0.00 64 1011.1
20260508200051 71 319 4.3 7.8 0.00 0.00 0.00 64 1011.2
20260508195542 70 309 4.3 7.8 0.00 0.00 0.00 65 1011.2
20260508195043 70 317 3.5 7.0 0.00 0.00 0.00 65 1011.2
20260508194541 70 317 3.5 7.8 0.00 0.00 0.00 65 1011.2
20260508194038 70 321 4.3 7.8 0.00 0.00 0.00 65 1011.3
20260508193540 70 313 3.5 7.8 0.00 0.00 0.00 64 1011.3
20260508193040 70 321 3.5 7.8 0.00 0.00 0.00 64 1011.3
20260508192040 72 270 3.5 7.8 0.00 0.00 0.00 62 1011.6
20260508191542 73 321 3.5 6.1 0.00 0.00 0.00 61 1011.6
20260508191037 73 325 2.6 7.0 0.00 0.00 0.00 61 1011.7
20260508190535 73 355 2.6 7.0 0.00 0.00 0.00 61 1011.7
20260508190033 73 5 2.6 7.0 0.00 0.00 0.00 61 1011.7
20260508185529 72 318 1.7 6.1 0.00 0.00 0.00 64 1011.8
20260508185029 72 336 2.6 6.1 0.00 0.00 0.00 63 1011.8
20260508184529 71 294 2.6 6.1 0.00 0.00 0.00 64 1011.8
20260508184026 70 355 3.5 6.1 0.00 0.00 0.00 66 1011.9
20260508183527 70 331 3.5 6.1 0.00 0.00 0.00 65 1011.9
20260508183026 69 355 3.5 8.7 0.00 0.00 0.00 67 1011.9
20260508182522 69 329 3.5 8.7 0.00 0.00 0.00 66 1012.0